Time,TemperatureF,DewpointF,PressureIn,WindDirection,WindDirectionDegrees,WindSpeedMPH,WindSpeedGustMPH,Humidity,HourlyPrecipIn,Conditions,Clouds,dailyrainin,SoftwareType,DateUTC
2013-08-23 00:01:00,66.1,0.0,29.94,WNW,299,0.0,4.0,0,0.61,,SCT026,1.15,VWS V14.01,2013-08-23 04:01:00,
2013-08-23 00:06:00,66.1,0.0,29.94,WNW,300,0.0,4.0,0,0.62,,,1.16,VWS V14.01,2013-08-23 04:06:00,
2013-08-23 00:11:00,65.8,0.0,29.94,NW,319,7.0,7.0,0,0.63,,,0.01,VWS V14.01,2013-08-23 04:11:00,
2013-08-23 00:16:00,65.5,0.0,29.94,NW,308,4.0,9.0,0,0.63,,,0.01,VWS V14.01,2013-08-23 04:16:00,
2013-08-23 00:21:00,65.2,0.0,29.94,WNW,288,10.0,12.0,0,0.55,,,0.02,VWS V14.01,2013-08-23 04:21:00,
2013-08-23 00:26:00,64.9,0.0,29.92,NW,325,10.0,15.0,0,0.55,,,0.02,VWS V14.01,2013-08-23 04:26:00,
2013-08-23 00:31:00,64.6,0.0,29.92,NW,307,9.0,12.0,0,0.52,,CLR,0.02,VWS V14.01,2013-08-23 04:31:00,
2013-08-23 00:36:00,64.5,0.0,29.92,WNW,283,6.0,13.0,0,0.52,,CLR,0.02,VWS V14.01,2013-08-23 04:36:00,
2013-08-23 00:41:00,64.4,0.0,29.92,NW,304,4.0,9.0,0,0.21,,CLR,0.02,VWS V14.01,2013-08-23 04:41:00,
2013-08-23 00:46:00,64.2,0.0,29.92,WNW,299,6.0,9.0,0,0.21,,CLR,0.02,VWS V14.01,2013-08-23 04:46:00,
2013-08-23 00:51:00,64.1,0.0,29.92,WNW,299,1.0,2.0,0,0.09,,CLR,0.02,VWS V14.01,2013-08-23 04:51:00,
2013-08-23 00:56:00,64.2,0.0,29.92,WNW,299,0.0,3.0,0,0.09,,CLR,0.02,VWS V14.01,2013-08-23 04:56:00,
2013-08-23 01:01:00,64.0,0.0,29.92,WNW,299,0.0,3.0,0,0.04,,,0.02,VWS V14.01,2013-08-23 05:01:00,
2013-08-23 01:06:00,63.8,0.0,29.92,WNW,299,0.0,3.0,0,0.04,,,0.02,VWS V14.01,2013-08-23 05:06:00,
2013-08-23 01:11:00,63.8,0.0,29.92,WNW,299,0.0,0.0,0,0.02,,,0.02,VWS V14.01,2013-08-23 05:11:00,
2013-08-23 01:16:00,63.8,0.0,29.92,WNW,299,0.0,0.0,0,0.02,,,0.02,VWS V14.01,2013-08-23 05:16:00,
2013-08-23 01:21:00,63.6,0.0,29.92,WNW,299,5.0,5.0,0,0.01,,,0.02,VWS V14.01,2013-08-23 05:21:00,
2013-08-23 01:26:00,63.5,0.0,29.92,WNW,293,0.0,7.0,0,0.02,,,0.03,VWS V14.01,2013-08-23 05:26:00,
2013-08-23 01:31:00,63.4,0.0,29.92,WNW,292,1.0,3.0,0,0.01,,-RA,0.03,VWS V14.01,2013-08-23 05:31:00,
2013-08-23 01:36:00,63.4,0.0,29.92,WNW,293,0.0,3.0,0,0.01,,-RA,0.03,VWS V14.01,2013-08-23 05:36:00,
2013-08-23 01:42:00,63.5,0.0,29.92,WNW,292,1.0,2.0,0,0.01,,-RA,0.03,VWS V14.01,2013-08-23 05:42:00,
2013-08-23 01:47:00,63.5,0.0,29.92,WNW,292,2.0,2.0,0,0.01,,-RA,0.03,VWS V14.01,2013-08-23 05:47:00,
2013-08-23 01:52:00,63.6,0.0,29.92,WNW,293,2.0,5.0,0,0.01,,-RA,0.03,VWS V14.01,2013-08-23 05:52:00,
2013-08-23 01:57:00,63.7,0.0,29.92,WNW,293,3.0,6.0,0,0.01,,-RA,0.03,VWS V14.01,2013-08-23 05:57:00,
2013-08-23 02:02:00,63.8,0.0,29.92,West,275,4.0,7.0,0,0.01,,-RA,0.03,VWS V14.01,2013-08-23 06:02:00,
2013-08-23 02:07:00,63.7,0.0,29.92,West,275,3.0,7.0,0,0.01,,-RA,0.03,VWS V14.01,2013-08-23 06:07:00,
2013-08-23 02:12:00,63.7,0.0,29.92,West,275,4.0,5.0,0,0.01,,-RA,0.03,VWS V14.01,2013-08-23 06:12:00,
2013-08-23 02:17:00,63.6,0.0,29.92,West,275,1.0,5.0,0,0.01,,-RA,0.03,VWS V14.01,2013-08-23 06:17:00,
2013-08-23 02:22:00,63.6,0.0,29.92,West,275,1.0,4.0,0,0.01,,-RA,0.03,VWS V14.01,2013-08-23 06:22:00,
2013-08-23 02:27:00,63.6,0.0,29.92,West,275,0.0,4.0,0,0.01,,-RA,0.03,VWS V14.01,2013-08-23 06:27:00,
2013-08-23 02:32:00,63.5,0.0,29.92,West,275,3.0,4.0,0,0.00,,,0.03,VWS V14.01,2013-08-23 06:32:00,
2013-08-23 02:37:00,63.5,0.0,29.92,West,275,0.0,4.0,0,0.00,,,0.03,VWS V14.01,2013-08-23 06:37:00,
2013-08-23 02:42:00,63.4,0.0,29.91,West,275,2.0,3.0,0,0.00,,,0.03,VWS V14.01,2013-08-23 06:42:00,
2013-08-23 02:47:00,63.4,0.0,29.91,West,275,3.0,3.0,0,0.00,,,0.03,VWS V14.01,2013-08-23 06:47:00,
2013-08-23 02:52:00,63.4,0.0,29.91,West,275,0.0,3.0,0,0.00,,,0.03,VWS V14.01,2013-08-23 06:52:00,
2013-08-23 02:57:00,63.5,0.0,29.91,West,275,0.0,3.0,0,0.00,,,0.03,VWS V14.01,2013-08-23 06:57:00,
2013-08-23 03:02:00,63.4,0.0,29.91,West,275,0.0,1.0,0,0.00,,,0.03,VWS V14.01,2013-08-23 07:02:00,
2013-08-23 03:07:00,63.3,0.0,29.91,West,275,0.0,2.0,0,0.00,,,0.03,VWS V14.01,2013-08-23 07:07:00,
2013-08-23 03:12:00,63.2,0.0,29.91,West,275,0.0,1.0,0,0.00,,,0.03,VWS V14.01,2013-08-23 07:12:00,
2013-08-23 03:17:00,63.1,0.0,29.91,West,275,0.0,1.0,0,0.00,,,0.03,VWS V14.01,2013-08-23 07:17:00,
2013-08-23 03:22:00,63.1,0.0,29.91,West,275,0.0,1.0,0,0.00,,,0.03,VWS V14.01,2013-08-23 07:22:00,
2013-08-23 03:27:00,63.0,0.0,29.91,West,275,2.0,3.0,0,0.00,,,0.03,VWS V14.01,2013-08-23 07:27:00,
2013-08-23 03:32:00,62.9,0.0,29.91,West,275,2.0,3.0,0,0.00,,,0.03,VWS V14.01,2013-08-23 07:32:00,
2013-08-23 03:37:00,62.9,0.0,29.91,West,275,0.0,3.0,0,0.00,,,0.03,VWS V14.01,2013-08-23 07:37:00,
2013-08-23 03:42:00,62.9,0.0,29.91,West,275,1.0,4.0,0,0.00,,,0.03,VWS V14.01,2013-08-23 07:42:00,
2013-08-23 03:47:00,62.8,0.0,29.91,West,275,0.0,4.0,0,0.00,,,0.03,VWS V14.01,2013-08-23 07:47:00,
2013-08-23 03:52:00,62.6,0.0,29.91,West,275,0.0,0.0,0,0.00,,,0.03,VWS V14.01,2013-08-23 07:52:00,
2013-08-23 03:57:00,62.5,0.0,29.91,West,275,0.0,1.0,0,0.00,,,0.03,VWS V14.01,2013-08-23 07:57:00,
2013-08-23 04:02:00,62.5,0.0,29.91,West,275,0.0,1.0,0,0.00,,,0.03,VWS V14.01,2013-08-23 08:02:00,
2013-08-23 04:07:00,62.5,0.0,29.91,West,275,0.0,1.0,0,0.00,,,0.03,VWS V14.01,2013-08-23 08:07:00,
2013-08-23 04:12:00,62.6,0.0,29.91,West,275,0.0,2.0,0,0.00,,,0.03,VWS V14.01,2013-08-23 08:12:00,
2013-08-23 04:17:00,62.7,0.0,29.91,West,275,0.0,2.0,0,0.00,,,0.03,VWS V14.01,2013-08-23 08:17:00,
2013-08-23 04:22:00,62.7,0.0,29.91,West,275,0.0,2.0,0,0.00,,,0.03,VWS V14.01,2013-08-23 08:22:00,
2013-08-23 04:27:00,62.5,0.0,29.92,West,275,0.0,3.0,0,0.00,,,0.03,VWS V14.01,2013-08-23 08:27:00,
2013-08-23 04:32:00,62.4,0.0,29.92,West,275,0.0,1.0,0,0.00,,,0.03,VWS V14.01,2013-08-23 08:32:00,
2013-08-23 04:37:00,62.3,0.0,29.92,West,275,0.0,1.0,0,0.00,,,0.03,VWS V14.01,2013-08-23 08:37:00,
2013-08-23 04:42:00,62.3,0.0,29.92,West,275,0.0,1.0,0,0.00,,,0.03,VWS V14.01,2013-08-23 08:42:00,
2013-08-23 04:47:00,62.3,0.0,29.92,West,275,1.0,3.0,0,0.00,,,0.03,VWS V14.01,2013-08-23 08:47:00,
2013-08-23 04:52:00,62.2,0.0,29.92,West,275,2.0,3.0,1,0.00,,,0.03,VWS V14.01,2013-08-23 08:52:00,
2013-08-23 04:57:00,62.1,0.0,29.92,West,275,0.0,4.0,1,0.00,,,0.03,VWS V14.01,2013-08-23 08:57:00,
2013-08-23 05:02:00,62.1,0.0,29.92,West,275,1.0,3.0,1,0.00,,,0.03,VWS V14.01,2013-08-23 09:02:00,
2013-08-23 05:07:00,62.1,0.0,29.92,West,275,0.0,3.0,1,0.00,,,0.03,VWS V14.01,2013-08-23 09:07:00,
2013-08-23 05:12:00,62.0,0.0,29.93,West,275,0.0,1.0,1,0.00,,,0.03,VWS V14.01,2013-08-23 09:12:00,
2013-08-23 05:17:00,62.0,0.0,29.93,West,275,0.0,1.0,1,0.00,,,0.03,VWS V14.01,2013-08-23 09:17:00,
2013-08-23 05:22:00,62.0,0.0,29.93,West,275,0.0,0.0,1,0.00,,,0.03,VWS V14.01,2013-08-23 09:22:00,
2013-08-23 05:27:00,61.9,0.0,29.92,West,275,0.0,0.0,1,0.00,,,0.03,VWS V14.01,2013-08-23 09:27:00,
2013-08-23 05:32:00,62.0,0.0,29.92,West,275,0.0,1.0,1,0.00,,,0.03,VWS V14.01,2013-08-23 09:32:00,
2013-08-23 05:37:00,62.1,0.0,29.92,West,275,0.0,1.0,1,0.00,,,0.03,VWS V14.01,2013-08-23 09:37:00,
2013-08-23 05:42:00,62.1,0.0,29.93,West,275,0.0,1.0,2,0.00,,,0.03,VWS V14.01,2013-08-23 09:42:00,
2013-08-23 05:47:00,62.1,0.0,29.93,West,275,0.0,1.0,2,0.00,,,0.03,VWS V14.01,2013-08-23 09:47:00,
2013-08-23 05:52:00,62.1,0.0,29.93,West,275,0.0,1.0,2,0.00,,,0.03,VWS V14.01,2013-08-23 09:52:00,
2013-08-23 05:57:00,62.0,0.0,29.93,West,275,0.0,2.0,2,0.00,,,0.03,VWS V14.01,2013-08-23 09:57:00,
2013-08-23 06:02:00,61.9,0.0,29.93,West,275,0.0,3.0,2,0.00,,,0.03,VWS V14.01,2013-08-23 10:02:00,
2013-08-23 06:07:00,61.8,0.0,29.93,West,275,0.0,3.0,2,0.00,,,0.03,VWS V14.01,2013-08-23 10:07:00,
2013-08-23 06:12:00,61.8,0.0,29.93,West,275,0.0,0.0,2,0.00,,,0.03,VWS V14.01,2013-08-23 10:12:00,
2013-08-23 06:17:00,61.8,0.0,29.93,West,275,0.0,0.0,2,0.00,,,0.03,VWS V14.01,2013-08-23 10:17:00,
2013-08-23 06:22:00,61.8,0.0,29.93,West,275,0.0,0.0,2,0.00,,,0.03,VWS V14.01,2013-08-23 10:22:00,
2013-08-23 06:27:00,61.8,0.0,29.93,West,275,2.0,3.0,2,0.00,,,0.03,VWS V14.01,2013-08-23 10:27:00,
2013-08-23 06:32:00,61.8,0.0,29.93,West,275,3.0,4.0,2,0.00,,,0.03,VWS V14.01,2013-08-23 10:32:00,
2013-08-23 06:37:00,61.8,0.0,29.94,West,275,2.0,4.0,2,0.00,,,0.03,VWS V14.01,2013-08-23 10:37:00,
2013-08-23 06:42:00,61.8,0.0,29.94,West,275,0.0,2.0,3,0.00,,,0.03,VWS V14.01,2013-08-23 10:42:00,
2013-08-23 06:47:00,61.8,0.0,29.94,West,275,0.0,3.0,3,0.00,,,0.03,VWS V14.01,2013-08-23 10:47:00,
2013-08-23 06:52:00,61.7,0.0,29.94,West,275,0.0,1.0,3,0.00,,,0.03,VWS V14.01,2013-08-23 10:52:00,
2013-08-23 06:57:00,61.7,0.0,29.94,West,275,0.0,3.0,3,0.00,,,0.03,VWS V14.01,2013-08-23 10:57:00,
2013-08-23 07:02:00,61.7,0.0,29.94,West,275,1.0,2.0,3,0.00,,,0.03,VWS V14.01,2013-08-23 11:02:00,
2013-08-23 07:07:00,61.7,0.0,29.94,West,275,0.0,2.0,3,0.00,,,0.03,VWS V14.01,2013-08-23 11:07:00,
2013-08-23 07:12:00,61.8,0.0,29.94,West,275,0.0,1.0,3,0.00,,,0.03,VWS V14.01,2013-08-23 11:12:00,
2013-08-23 07:17:00,61.8,0.0,29.94,West,275,0.0,1.0,3,0.00,,,0.03,VWS V14.01,2013-08-23 11:17:00,
2013-08-23 07:22:00,61.8,0.0,29.95,West,275,0.0,1.0,3,0.00,,,0.03,VWS V14.01,2013-08-23 11:22:00,
2013-08-23 07:27:00,61.8,0.0,29.95,West,275,0.0,1.0,3,0.00,,,0.03,VWS V14.01,2013-08-23 11:27:00,
2013-08-23 07:32:00,61.8,0.0,29.95,SSE,155,0.0,0.0,3,0.00,,,0.03,VWS V14.01,2013-08-23 11:32:00,
2013-08-23 07:37:00,61.9,0.0,29.95,SSE,155,0.0,0.0,3,0.00,,,0.03,VWS V14.01,2013-08-23 11:37:00,
2013-08-23 07:42:00,62.0,0.0,29.95,SSE,155,0.0,0.0,3,0.00,,,0.03,VWS V14.01,2013-08-23 11:42:00,
2013-08-23 07:47:00,62.0,0.0,29.95,SSE,156,0.0,2.0,3,0.00,,,0.03,VWS V14.01,2013-08-23 11:47:00,
2013-08-23 07:52:00,62.0,-14.2,29.95,SSE,156,0.0,2.0,4,0.00,,,0.03,VWS V14.01,2013-08-23 11:52:00,
2013-08-23 07:57:00,62.0,-14.2,29.95,SSE,156,0.0,2.0,4,0.02,,,0.05,VWS V14.01,2013-08-23 11:57:00,
2013-08-23 08:02:00,62.1,-14.1,29.95,SE,128,2.0,3.0,4,0.14,,,0.17,VWS V14.01,2013-08-23 12:02:00,
2013-08-23 08:07:00,62.2,-14.1,29.96,ENE,78,0.0,6.0,4,0.36,,,0.39,VWS V14.01,2013-08-23 12:07:00,
2013-08-23 08:12:00,62.6,-13.8,29.96,NNE,22,3.0,5.0,4,0.53,,,0.56,VWS V14.01,2013-08-23 12:12:00,
2013-08-23 08:17:00,62.2,-14.1,29.96,SE,139,5.0,7.0,4,0.63,,,0.66,VWS V14.01,2013-08-23 12:17:00,
2013-08-23 08:22:00,61.9,-14.3,29.95,ENE,68,1.0,3.0,4,0.67,,,0.70,VWS V14.01,2013-08-23 12:22:00,
2013-08-23 08:27:00,61.7,-14.4,29.95,NE,36,0.0,3.0,4,0.69,,,0.72,VWS V14.01,2013-08-23 12:27:00,
2013-08-23 08:32:00,61.5,-14.5,29.95,NE,36,0.0,1.0,4,0.70,,,0.73,VWS V14.01,2013-08-23 12:32:00,
2013-08-23 08:37:00,61.5,-14.5,29.96,SE,136,0.0,3.0,4,0.70,,,0.73,VWS V14.01,2013-08-23 12:37:00,
2013-08-23 08:42:00,61.3,-14.7,29.96,SE,131,0.0,2.0,4,0.71,,,0.74,VWS V14.01,2013-08-23 12:42:00,
2013-08-23 08:47:00,60.9,-10.5,29.96,ESE,106,1.0,3.0,5,0.71,,,0.74,VWS V14.01,2013-08-23 12:47:00,
2013-08-23 08:52:00,60.8,-10.6,29.96,ENE,74,2.0,3.0,5,0.72,,,0.75,VWS V14.01,2013-08-23 12:52:00,
2013-08-23 08:57:00,60.8,-10.6,29.96,North,9,3.0,5.0,5,0.72,,,0.75,VWS V14.01,2013-08-23 12:57:00,
2013-08-23 09:02:00,60.7,-10.6,29.96,North,9,0.0,3.0,5,0.70,,,0.76,VWS V14.01,2013-08-23 13:02:00,
2013-08-23 09:07:00,60.7,-10.6,29.98,NNE,22,2.0,5.0,5,0.71,,,0.77,VWS V14.01,2013-08-23 13:07:00,
2013-08-23 09:12:00,60.3,-10.9,29.98,North,5,5.0,6.0,5,0.40,,,0.81,VWS V14.01,2013-08-23 13:12:00,
2013-08-23 09:17:00,59.3,-11.7,29.98,North,355,4.0,10.0,5,0.51,,,0.92,VWS V14.01,2013-08-23 13:17:00,
2013-08-23 09:22:00,58.2,-12.4,30.00,North,355,0.0,5.0,5,0.34,,,1.01,VWS V14.01,2013-08-23 13:22:00,
2013-08-23 09:27:00,58.0,-12.6,30.00,North,355,5.0,5.0,5,0.50,,,1.17,VWS V14.01,2013-08-23 13:27:00,
2013-08-23 09:32:00,57.6,-9.2,30.00,West,274,5.0,10.0,6,0.58,,,1.30,VWS V14.01,2013-08-23 13:32:00,
2013-08-23 09:38:00,57.4,-9.4,30.01,West,261,3.0,10.0,6,0.61,,,1.33,VWS V14.01,2013-08-23 13:38:00,
2013-08-23 09:43:00,57.5,-9.3,30.01,West,263,2.0,4.0,6,0.62,,,1.35,VWS V14.01,2013-08-23 13:43:00,
2013-08-23 09:48:00,57.6,-9.2,30.01,West,263,3.0,4.0,6,0.63,,,1.36,VWS V14.01,2013-08-23 13:48:00,
2013-08-23 09:53:00,57.7,-9.1,30.01,West,263,1.0,4.0,6,0.64,,,1.38,VWS V14.01,2013-08-23 13:53:00,
2013-08-23 09:58:00,57.7,-9.1,30.01,West,263,0.0,4.0,6,0.65,,,1.39,VWS V14.01,2013-08-23 13:58:00,
2013-08-23 10:03:00,57.9,-9.0,30.01,West,263,3.0,4.0,6,0.63,,,1.39,VWS V14.01,2013-08-23 14:03:00,
2013-08-23 10:08:00,57.9,-9.0,30.02,West,263,2.0,4.0,6,0.64,,,1.40,VWS V14.01,2013-08-23 14:08:00,
2013-08-23 10:13:00,57.9,-9.0,30.02,West,263,2.0,2.0,6,0.64,,,1.41,VWS V14.01,2013-08-23 14:13:00,
2013-08-23 10:18:00,57.9,-9.0,30.02,West,263,2.0,3.0,6,0.66,,,1.43,VWS V14.01,2013-08-23 14:18:00,
2013-08-23 10:23:00,57.9,-9.0,30.02,West,263,2.0,3.0,6,0.52,,,1.45,VWS V14.01,2013-08-23 14:23:00,
2013-08-23 10:28:00,58.0,-8.9,30.02,West,263,0.0,3.0,6,0.53,,,1.46,VWS V14.01,2013-08-23 14:28:00,
2013-08-23 10:33:00,58.0,-8.9,30.02,West,263,1.0,2.0,6,0.29,,-RA,1.48,VWS V14.01,2013-08-23 14:33:00,
2013-08-23 10:38:00,58.2,-8.8,30.02,West,263,1.0,3.0,6,0.29,,-RA,1.48,VWS V14.01,2013-08-23 14:38:00,
2013-08-23 10:43:00,58.4,-8.6,30.02,West,263,0.0,3.0,6,0.15,,-RA,1.48,VWS V14.01,2013-08-23 14:43:00,
2013-08-23 10:48:00,58.6,-8.5,30.02,West,263,0.0,3.0,6,0.15,,-RA,1.48,VWS V14.01,2013-08-23 14:48:00,
2013-08-23 10:53:00,58.7,-8.4,30.02,West,263,1.0,3.0,6,0.11,,-RA,1.48,VWS V14.01,2013-08-23 14:53:00,
2013-08-23 10:58:00,58.8,-8.3,30.02,West,263,1.0,3.0,6,0.11,,-RA,1.48,VWS V14.01,2013-08-23 14:58:00,
2013-08-23 11:03:00,59.0,-8.2,30.02,West,263,1.0,2.0,6,0.09,,-RA,1.48,VWS V14.01,2013-08-23 15:03:00,
2013-08-23 11:08:00,59.3,-8.0,30.02,West,263,0.0,2.0,6,0.09,,-RA,1.48,VWS V14.01,2013-08-23 15:08:00,
2013-08-23 11:13:00,59.8,-7.6,30.02,West,263,0.0,1.0,6,0.08,,-RA,1.48,VWS V14.01,2013-08-23 15:13:00,
2013-08-23 11:18:00,59.9,-7.5,30.02,West,263,0.0,1.0,6,0.08,,-RA,1.48,VWS V14.01,2013-08-23 15:18:00,
2013-08-23 11:23:00,60.2,-7.3,30.01,West,263,0.0,1.0,6,0.05,,-RA,1.48,VWS V14.01,2013-08-23 15:23:00,
2013-08-23 11:28:00,60.2,-7.3,30.01,West,263,0.0,1.0,6,0.05,,-RA,1.48,VWS V14.01,2013-08-23 15:28:00,
2013-08-23 11:33:00,60.3,-10.9,30.01,West,263,0.0,0.0,5,0.01,,BKN110,1.48,VWS V14.01,2013-08-23 15:33:00,
2013-08-23 11:38:00,60.3,-7.2,29.99,West,263,0.0,1.0,6,0.01,,BKN110,1.48,VWS V14.01,2013-08-23 15:38:00,
2013-08-23 11:43:00,60.3,-10.9,29.99,West,263,0.0,0.0,5,0.00,,BKN110,1.48,VWS V14.01,2013-08-23 15:43:00,
2013-08-23 11:48:00,60.3,-10.9,29.99,West,263,1.0,2.0,5,0.00,,BKN110,1.48,VWS V14.01,2013-08-23 15:48:00,
2013-08-23 11:53:00,60.3,-10.9,29.99,West,263,0.0,3.0,5,0.00,,BKN110,1.48,VWS V14.01,2013-08-23 15:53:00,
2013-08-23 11:58:00,60.3,-10.9,29.99,West,263,0.0,3.0,5,0.00,,BKN110,1.48,VWS V14.01,2013-08-23 15:58:00,
2013-08-23 12:03:00,60.3,-10.9,29.99,West,263,0.0,0.0,5,0.00,,BKN110,1.48,VWS V14.01,2013-08-23 16:03:00,
2013-08-23 12:08:00,60.3,-10.9,29.99,West,263,0.0,0.0,5,0.00,,BKN110,1.48,VWS V14.01,2013-08-23 16:08:00,
2013-08-23 12:13:00,60.3,-10.9,29.99,West,263,0.0,1.0,5,0.00,,BKN110,1.48,VWS V14.01,2013-08-23 16:13:00,
2013-08-23 12:18:00,60.3,-10.9,29.99,West,263,0.0,1.0,4,0.00,,BKN110,1.48,VWS V14.01,2013-08-23 16:18:00,
2013-08-23 12:23:00,60.3,-10.9,29.99,West,263,0.0,0.0,4,0.00,,BKN110,1.48,VWS V14.01,2013-08-23 16:23:00,
2013-08-23 12:28:00,60.3,-10.9,29.99,West,263,1.0,1.0,4,0.00,,BKN110,1.48,VWS V14.01,2013-08-23 16:28:00,
2013-08-23 12:33:00,60.3,-10.9,29.99,West,263,2.0,2.0,4,0.00,,OVC100,1.48,VWS V14.01,2013-08-23 16:33:00,
2013-08-23 12:38:00,60.3,-10.9,29.99,West,263,0.0,3.0,4,0.00,,OVC100,1.48,VWS V14.01,2013-08-23 16:38:00,
2013-08-23 12:43:00,60.3,-10.9,29.99,West,263,0.0,1.0,3,0.00,,OVC100,1.48,VWS V14.01,2013-08-23 16:43:00,
2013-08-23 12:48:00,60.3,-10.9,29.99,West,263,0.0,2.0,3,0.00,,OVC100,1.48,VWS V14.01,2013-08-23 16:48:00,
2013-08-23 12:53:00,60.3,-10.9,30.00,West,263,0.0,1.0,3,0.00,,OVC100,1.48,VWS V14.01,2013-08-23 16:53:00,
2013-08-23 12:58:00,60.3,-10.9,30.00,West,263,0.0,1.0,3,0.00,,OVC100,1.48,VWS V14.01,2013-08-23 16:58:00,
2013-08-23 13:03:00,60.3,-10.9,30.00,West,263,0.0,1.0,3,0.00,,OVC100,1.48,VWS V14.01,2013-08-23 17:03:00,
2013-08-23 13:08:00,60.3,-10.9,29.99,West,263,0.0,4.0,3,0.00,,OVC100,1.48,VWS V14.01,2013-08-23 17:08:00,
2013-08-23 13:13:00,60.3,-10.9,29.99,West,263,2.0,4.0,3,0.00,,OVC100,1.48,VWS V14.01,2013-08-23 17:13:00,
2013-08-23 13:18:00,60.3,-10.9,29.99,West,263,0.0,4.0,3,0.00,,OVC100,1.48,VWS V14.01,2013-08-23 17:18:00,
2013-08-23 13:23:00,60.3,-10.9,30.00,West,263,0.0,5.0,3,0.00,,OVC100,1.48,VWS V14.01,2013-08-23 17:23:00,
2013-08-23 13:28:00,60.3,-10.9,30.00,West,263,1.0,5.0,3,0.00,,OVC100,1.48,VWS V14.01,2013-08-23 17:28:00,
2013-08-23 13:33:00,60.3,-10.9,30.00,West,263,0.0,2.0,3,0.00,,FEW095,1.48,VWS V14.01,2013-08-23 17:33:00,
2013-08-23 13:38:00,60.3,-10.9,29.99,West,263,0.0,4.0,3,0.00,,FEW095,1.48,VWS V14.01,2013-08-23 17:38:00,
2013-08-23 13:43:00,60.3,-10.9,29.99,West,263,0.0,0.0,3,0.00,,FEW095,1.48,VWS V14.01,2013-08-23 17:43:00,
2013-08-23 13:48:00,60.3,-10.9,29.99,West,263,4.0,4.0,3,0.00,,FEW095,1.48,VWS V14.01,2013-08-23 17:48:00,
2013-08-23 13:53:00,60.3,-10.9,29.99,West,263,2.0,5.0,3,0.00,,FEW095,1.48,VWS V14.01,2013-08-23 17:53:00,
2013-08-23 13:58:00,60.3,-10.9,29.99,West,263,2.0,2.0,3,0.01,,FEW095,1.49,VWS V14.01,2013-08-23 17:58:00,
2013-08-23 14:03:00,60.3,-10.9,29.99,West,263,1.0,5.0,3,0.01,,FEW095,1.49,VWS V14.01,2013-08-23 18:03:00,
2013-08-23 14:08:00,60.3,-10.9,29.99,West,263,0.0,0.0,3,0.01,,FEW095,1.49,VWS V14.01,2013-08-23 18:08:00,
2013-08-23 14:13:00,60.3,-10.9,29.99,ENE,74,1.0,6.0,3,0.01,,FEW095,1.49,VWS V14.01,2013-08-23 18:13:00,
2013-08-23 14:18:00,60.3,-10.9,29.99,NNE,23,2.0,4.0,3,0.01,,FEW095,1.49,VWS V14.01,2013-08-23 18:18:00,
2013-08-23 14:23:00,60.3,-10.9,30.00,East,80,1.0,5.0,3,0.01,,FEW095,1.49,VWS V14.01,2013-08-23 18:23:00,
2013-08-23 14:28:00,60.3,-10.9,30.00,East,99,0.0,0.0,3,0.01,,FEW095,1.49,VWS V14.01,2013-08-23 18:28:00,
2013-08-23 14:33:00,60.3,-10.9,30.00,East,84,0.0,6.0,3,0.01,,FEW100,1.49,VWS V14.01,2013-08-23 18:33:00,
2013-08-23 14:38:00,60.3,-10.9,30.00,East,87,2.0,2.0,3,0.01,,FEW100,1.49,VWS V14.01,2013-08-23 18:38:00,
2013-08-23 14:43:00,60.3,-10.9,30.00,ENE,68,0.0,3.0,3,0.01,,FEW100,1.49,VWS V14.01,2013-08-23 18:43:00,
2013-08-23 14:48:00,60.3,-10.9,30.00,NNE,28,2.0,2.0,3,0.01,,FEW100,1.49,VWS V14.01,2013-08-23 18:48:00,
2013-08-23 14:53:00,60.3,-10.9,29.99,South,169,0.0,4.0,3,0.01,,FEW100,1.49,VWS V14.01,2013-08-23 18:53:00,
2013-08-23 14:58:00,60.3,-10.9,29.99,ENE,76,0.0,1.0,3,0.00,,FEW100,1.49,VWS V14.01,2013-08-23 18:58:00,
2013-08-23 15:03:00,60.3,-10.9,29.99,NNW,346,3.0,10.0,3,0.00,,FEW100,1.49,VWS V14.01,2013-08-23 19:03:00,
2013-08-23 15:08:00,60.3,-10.9,29.99,NE,39,1.0,4.0,3,0.00,,FEW100,1.49,VWS V14.01,2013-08-23 19:08:00,
2013-08-23 15:13:00,60.3,-10.9,29.99,ESE,123,0.0,4.0,3,0.00,,FEW100,1.49,VWS V14.01,2013-08-23 19:13:00,
2013-08-23 15:18:00,60.3,47.7,29.99,NNE,19,0.0,0.0,63,0.00,,FEW100,1.49,VWS V14.01,2013-08-23 19:18:00,
2013-08-23 15:23:00,60.3,47.7,29.99,ESE,105,1.0,4.0,63,0.00,,FEW100,1.49,VWS V14.01,2013-08-23 19:23:00,
2013-08-23 15:28:00,60.3,47.7,29.99,SE,126,6.0,6.0,63,0.00,,FEW100,1.49,VWS V14.01,2013-08-23 19:28:00,
2013-08-23 15:33:00,71.6,58.8,29.99,East,87,1.0,9.0,64,0.00,,BKN050,1.49,VWS V14.01,2013-08-23 19:33:00,
2013-08-23 15:38:00,71.2,58.4,29.97,SSW,203,0.0,0.0,64,0.00,,BKN050,1.49,VWS V14.01,2013-08-23 19:38:00,
2013-08-23 15:43:00,71.2,58.4,29.97,NNE,33,0.0,2.0,64,0.00,,BKN050,1.49,VWS V14.01,2013-08-23 19:43:00,
2013-08-23 15:48:00,72.1,59.3,29.97,WNW,286,1.0,1.0,64,0.00,,BKN050,1.49,VWS V14.01,2013-08-23 19:48:00,
2013-08-23 15:53:00,72.3,59.0,29.96,ENE,74,0.0,3.0,63,0.00,,BKN050,1.49,VWS V14.01,2013-08-23 19:53:00,
2013-08-23 15:58:00,71.7,58.9,29.96,East,84,0.0,0.0,64,0.00,,BKN050,1.49,VWS V14.01,2013-08-23 19:58:00,
2013-08-23 16:03:00,71.2,58.4,29.96,East,85,1.0,1.0,64,0.00,,BKN050,1.49,VWS V14.01,2013-08-23 20:03:00,
2013-08-23 16:08:00,71.0,58.2,29.96,East,88,0.0,0.0,64,0.00,,BKN050,1.49,VWS V14.01,2013-08-23 20:08:00,
2013-08-23 16:13:00,70.6,57.8,29.96,NNE,30,0.0,2.0,64,0.00,,BKN050,1.49,VWS V14.01,2013-08-23 20:13:00,
2013-08-23 16:18:00,70.3,57.1,29.96,NNE,30,0.0,1.0,63,0.00,,BKN050,1.49,VWS V14.01,2013-08-23 20:18:00,
2013-08-23 16:23:00,70.1,56.9,29.97,NNE,30,0.0,3.0,63,0.00,,BKN050,1.49,VWS V14.01,2013-08-23 20:23:00,
2013-08-23 16:29:00,70.1,56.5,29.97,NNE,30,0.0,1.0,62,0.00,,BKN050,1.49,VWS V14.01,2013-08-23 20:29:00,
2013-08-23 16:34:00,69.9,54.9,29.97,North,355,0.0,2.0,59,0.00,,BKN050,1.49,VWS V14.01,2013-08-23 20:34:00,
2013-08-23 16:39:00,69.8,54.8,29.97,North,355,0.0,0.0,59,0.00,,BKN050,1.49,VWS V14.01,2013-08-23 20:39:00,
2013-08-23 16:44:00,70.0,55.0,29.97,North,355,0.0,1.0,59,0.00,,BKN050,1.49,VWS V14.01,2013-08-23 20:44:00,
2013-08-23 16:49:00,70.9,57.2,29.97,North,355,0.0,0.0,62,0.00,,BKN050,1.49,VWS V14.01,2013-08-23 20:49:00,
2013-08-23 16:54:00,72.6,59.3,29.96,North,355,1.0,1.0,63,0.00,,BKN050,1.49,VWS V14.01,2013-08-23 20:54:00,
2013-08-23 16:59:00,72.3,59.0,29.96,SE,136,0.0,1.0,63,0.00,,BKN050,1.49,VWS V14.01,2013-08-23 20:59:00,
2013-08-23 17:04:00,71.9,58.6,29.96,ESE,107,0.0,2.0,63,0.00,,BKN050,1.49,VWS V14.01,2013-08-23 21:04:00,
2013-08-23 17:09:00,71.6,58.8,29.96,ENE,65,0.0,0.0,64,0.00,,BKN050,1.49,VWS V14.01,2013-08-23 21:09:00,
2013-08-23 17:14:00,71.6,58.3,29.96,ENE,74,0.0,1.0,63,0.00,,BKN050,1.49,VWS V14.01,2013-08-23 21:14:00,
2013-08-23 17:19:00,72.0,59.2,29.96,South,182,0.0,1.0,64,0.00,,BKN050,1.49,VWS V14.01,2013-08-23 21:19:00,
2013-08-23 17:24:00,71.9,59.1,29.95,South,182,0.0,2.0,64,0.00,,BKN050,1.49,VWS V14.01,2013-08-23 21:24:00,
2013-08-23 17:29:00,71.7,58.9,29.95,South,182,0.0,0.0,64,0.00,,BKN050,1.49,VWS V14.01,2013-08-23 21:29:00,
2013-08-23 17:34:00,71.2,58.0,29.95,SSE,153,0.0,2.0,63,0.00,,FEW044,1.49,VWS V14.01,2013-08-23 21:34:00,
2013-08-23 17:39:00,70.6,57.4,29.96,South,173,0.0,3.0,63,0.00,,FEW044,1.49,VWS V14.01,2013-08-23 21:39:00,
2013-08-23 17:44:00,69.9,56.3,29.96,SW,221,0.0,4.0,62,0.00,,FEW044,1.49,VWS V14.01,2013-08-23 21:44:00,
2013-08-23 17:49:00,69.7,56.1,29.96,SSW,207,1.0,1.0,62,0.00,,FEW044,1.49,VWS V14.01,2013-08-23 21:49:00,
2013-08-23 17:54:00,69.7,56.1,29.96,SSW,207,0.0,1.0,62,0.00,,FEW044,1.49,VWS V14.01,2013-08-23 21:54:00,
2013-08-23 17:59:00,70.2,56.6,29.96,SSW,207,0.0,0.0,62,0.00,,FEW044,1.49,VWS V14.01,2013-08-23 21:59:00,
2013-08-23 18:04:00,70.7,57.1,29.96,SSW,207,0.0,2.0,62,0.00,,FEW044,1.49,VWS V14.01,2013-08-23 22:04:00,
2013-08-23 18:09:00,70.7,57.5,29.96,SSW,207,0.0,0.0,63,0.00,,FEW044,1.49,VWS V14.01,2013-08-23 22:09:00,
2013-08-23 18:14:00,70.6,57.0,29.96,SSW,207,0.0,0.0,62,0.00,,FEW044,1.49,VWS V14.01,2013-08-23 22:14:00,
2013-08-23 18:19:00,70.4,56.3,29.96,SSW,207,0.0,0.0,61,0.00,,FEW044,1.49,VWS V14.01,2013-08-23 22:19:00,
2013-08-23 18:24:00,70.4,55.9,29.96,SSW,207,0.0,0.0,60,0.00,,FEW044,1.49,VWS V14.01,2013-08-23 22:24:00,
2013-08-23 18:29:00,70.4,54.0,29.96,SSW,207,0.0,0.0,56,0.00,,FEW044,1.49,VWS V14.01,2013-08-23 22:29:00,
2013-08-23 18:34:00,70.3,53.4,29.96,SSW,207,0.0,0.0,55,0.00,,BKN060,1.49,VWS V14.01,2013-08-23 22:34:00,
2013-08-23 18:39:00,70.4,53.0,29.97,WSW,242,1.0,1.0,54,0.00,,BKN060,1.49,VWS V14.01,2013-08-23 22:39:00,
2013-08-23 18:44:00,70.3,52.4,29.97,West,263,1.0,2.0,53,0.00,,BKN060,1.49,VWS V14.01,2013-08-23 22:44:00,
2013-08-23 18:49:00,69.8,51.9,29.97,West,263,0.0,0.0,53,0.00,,BKN060,1.49,VWS V14.01,2013-08-23 22:49:00,
2013-08-23 18:54:00,69.8,49.2,29.97,West,263,1.0,1.0,48,0.00,,BKN060,1.49,VWS V14.01,2013-08-23 22:54:00,
2013-08-23 18:59:00,69.8,50.3,29.97,NNW,335,1.0,1.0,50,0.00,,BKN060,1.49,VWS V14.01,2013-08-23 22:59:00,
2013-08-23 19:04:00,69.8,52.4,29.97,NNW,335,0.0,1.0,54,0.00,,BKN060,1.49,VWS V14.01,2013-08-23 23:04:00,
2013-08-23 19:09:00,70.0,53.6,29.97,NNW,334,0.0,1.0,56,0.00,,BKN060,1.49,VWS V14.01,2013-08-23 23:09:00,
2013-08-23 19:14:00,70.1,52.2,29.97,NNW,335,0.0,1.0,53,0.00,,BKN060,1.49,VWS V14.01,2013-08-23 23:14:00,
2013-08-23 19:19:00,69.7,48.6,29.97,NNW,334,1.0,1.0,47,0.00,,BKN060,1.49,VWS V14.01,2013-08-23 23:19:00,
2013-08-23 19:24:00,69.0,49.1,29.97,WNW,284,0.0,3.0,49,0.00,,BKN060,1.49,VWS V14.01,2013-08-23 23:24:00,
2013-08-23 19:29:00,68.6,47.6,29.97,WNW,284,0.0,1.0,47,0.00,,BKN060,1.49,VWS V14.01,2013-08-23 23:29:00,
2013-08-23 19:34:00,68.3,48.4,29.97,WNW,284,0.0,1.0,49,0.00,,OVC060,1.49,VWS V14.01,2013-08-23 23:34:00,
2013-08-23 19:39:00,67.9,49.1,29.98,WNW,284,0.0,1.0,51,0.00,,OVC060,1.49,VWS V14.01,2013-08-23 23:39:00,
2013-08-23 19:44:00,67.5,49.3,29.98,WNW,284,0.0,1.0,52,0.00,,OVC060,1.49,VWS V14.01,2013-08-23 23:44:00,
2013-08-23 19:49:00,67.1,49.4,29.98,WNW,284,0.0,0.0,53,0.00,,OVC060,1.49,VWS V14.01,2013-08-23 23:49:00,
2013-08-23 19:54:00,66.8,49.1,29.98,WNW,284,0.0,0.0,53,0.00,,OVC060,1.49,VWS V14.01,2013-08-23 23:54:00,
2013-08-23 19:59:00,66.5,48.9,29.98,WNW,284,0.0,1.0,53,0.00,,OVC060,1.49,VWS V14.01,2013-08-23 23:59:00,
2013-08-23 20:04:00,66.2,48.1,29.98,WNW,284,0.0,1.0,52,0.00,,OVC060,1.49,VWS V14.01,2013-08-24 00:04:00,
2013-08-23 20:09:00,65.8,46.7,29.99,WNW,284,0.0,0.0,50,0.00,,OVC060,1.49,VWS V14.01,2013-08-24 00:09:00,
2013-08-23 20:14:00,65.6,46.5,29.99,WNW,284,0.0,0.0,50,0.00,,OVC060,1.49,VWS V14.01,2013-08-24 00:14:00,
2013-08-23 20:19:00,65.3,43.4,29.99,WNW,284,0.0,0.0,45,0.00,,OVC060,1.49,VWS V14.01,2013-08-24 00:19:00,
2013-08-23 20:24:00,65.0,42.6,30.00,WNW,284,0.0,0.0,44,0.00,,OVC060,1.49,VWS V14.01,2013-08-24 00:24:00,
2013-08-23 20:29:00,64.8,43.0,30.00,WNW,284,0.0,0.0,45,0.00,,OVC060,1.49,VWS V14.01,2013-08-24 00:29:00,
2013-08-23 20:34:00,64.5,42.1,30.00,WNW,284,0.0,0.0,44,0.00,,FEW070,1.49,VWS V14.01,2013-08-24 00:34:00,
2013-08-23 20:39:00,64.2,38.8,30.01,WNW,284,0.0,1.0,39,0.00,,FEW070,1.49,VWS V14.01,2013-08-24 00:39:00,
2013-08-23 20:44:00,63.7,34.1,30.01,WNW,284,0.0,3.0,33,0.00,,FEW070,1.49,VWS V14.01,2013-08-24 00:44:00,
2013-08-23 20:49:00,63.4,29.8,30.01,WNW,284,0.0,0.0,28,0.00,,FEW070,1.49,VWS V14.01,2013-08-24 00:49:00,
2013-08-23 20:54:00,63.0,26.6,30.02,WNW,284,0.0,0.0,25,0.00,,FEW070,1.49,VWS V14.01,2013-08-24 00:54:00,
2013-08-23 20:59:00,62.7,22.2,30.02,WNW,284,0.0,0.0,21,0.00,,FEW070,1.49,VWS V14.01,2013-08-24 00:59:00,
2013-08-23 21:04:00,62.3,19.5,30.02,WNW,284,1.0,2.0,19,0.00,,FEW070,1.49,VWS V14.01,2013-08-24 01:04:00,
2013-08-23 21:09:00,62.1,16.8,30.04,WNW,284,1.0,3.0,17,0.00,,FEW070,1.49,VWS V14.01,2013-08-24 01:09:00,
2013-08-23 21:14:00,61.9,15.2,30.04,WNW,284,1.0,3.0,16,0.00,,FEW070,1.49,VWS V14.01,2013-08-24 01:14:00,
2013-08-23 21:19:00,61.8,12.1,30.04,WNW,284,0.0,1.0,14,0.00,,FEW070,1.49,VWS V14.01,2013-08-24 01:19:00,
2013-08-23 21:24:00,61.8,10.5,30.05,WNW,284,0.0,1.0,13,0.00,,FEW070,1.49,VWS V14.01,2013-08-24 01:24:00,
2013-08-23 21:29:00,61.7,8.6,30.05,WNW,284,0.0,0.0,12,0.00,,FEW070,1.49,VWS V14.01,2013-08-24 01:29:00,
2013-08-23 21:34:00,61.7,6.7,30.05,WNW,284,1.0,1.0,11,0.00,,CLR,1.49,VWS V14.01,2013-08-24 01:34:00,
2013-08-23 21:39:00,61.6,6.6,30.06,WNW,284,0.0,2.0,11,0.00,,CLR,1.49,VWS V14.01,2013-08-24 01:39:00,
2013-08-23 21:44:00,61.5,6.5,30.06,WNW,284,1.0,3.0,11,0.00,,CLR,1.49,VWS V14.01,2013-08-24 01:44:00,
2013-08-23 21:49:00,61.4,6.4,30.06,WNW,284,0.0,1.0,11,0.00,,CLR,1.49,VWS V14.01,2013-08-24 01:49:00,
2013-08-23 21:54:00,61.4,4.4,30.07,WNW,284,0.0,1.0,10,0.00,,CLR,1.49,VWS V14.01,2013-08-24 01:54:00,
2013-08-23 21:59:00,61.3,4.3,30.07,WNW,284,0.0,0.0,10,0.00,,CLR,1.49,VWS V14.01,2013-08-24 01:59:00,
2013-08-23 22:04:00,61.2,4.2,30.07,WNW,284,0.0,0.0,10,0.00,,CLR,1.49,VWS V14.01,2013-08-24 02:04:00,
2013-08-23 22:09:00,61.1,1.9,30.07,WNW,284,0.0,0.0,9,0.00,,CLR,1.49,VWS V14.01,2013-08-24 02:09:00,
2013-08-23 22:14:00,61.1,1.9,30.07,WNW,284,0.0,0.0,9,0.00,,CLR,1.49,VWS V14.01,2013-08-24 02:14:00,
2013-08-23 22:20:00,61.0,1.8,30.07,WNW,284,0.0,0.0,9,0.00,,CLR,1.49,VWS V14.01,2013-08-24 02:20:00,
2013-08-23 22:25:00,60.9,-0.8,30.06,WNW,284,0.0,0.0,8,0.00,,CLR,1.49,VWS V14.01,2013-08-24 02:25:00,
2013-08-23 22:30:00,60.8,-0.9,30.06,WNW,284,0.0,0.0,8,0.00,,CLR,1.49,VWS V14.01,2013-08-24 02:30:00,
2013-08-23 22:35:00,60.5,-1.1,30.06,WNW,284,0.0,0.0,8,0.00,,FEW060,1.49,VWS V14.01,2013-08-24 02:35:00,
2013-08-23 22:40:00,60.3,-1.2,30.07,WNW,284,0.0,0.0,8,0.00,,FEW060,1.49,VWS V14.01,2013-08-24 02:40:00,
2013-08-23 22:45:00,60.2,-4.1,30.07,WNW,284,0.0,0.0,7,0.00,,FEW060,1.49,VWS V14.01,2013-08-24 02:45:00,
2013-08-23 22:50:00,60.0,-4.3,30.07,WNW,284,0.0,1.0,7,0.00,,FEW060,1.49,VWS V14.01,2013-08-24 02:50:00,
2013-08-23 22:55:00,59.6,-4.6,30.07,WNW,284,1.0,1.0,7,0.00,,FEW060,1.49,VWS V14.01,2013-08-24 02:55:00,
2013-08-23 23:00:00,59.4,-4.7,30.07,WNW,284,1.0,3.0,7,0.00,,FEW060,1.49,VWS V14.01,2013-08-24 03:00:00,
2013-08-23 23:05:00,59.0,-5.0,30.07,WSW,247,2.0,4.0,7,0.00,,FEW060,1.49,VWS V14.01,2013-08-24 03:05:00,
2013-08-23 23:10:00,59.0,-8.2,30.08,WSW,246,0.0,0.0,6,0.00,,FEW060,1.49,VWS V14.01,2013-08-24 03:10:00,
2013-08-23 23:15:00,58.9,-8.3,30.08,WSW,247,0.0,1.0,6,0.00,,FEW060,1.49,VWS V14.01,2013-08-24 03:15:00,
2013-08-23 23:20:00,58.8,-8.3,30.08,WSW,247,0.0,0.0,6,0.00,,FEW060,1.49,VWS V14.01,2013-08-24 03:20:00,
2013-08-23 23:25:00,58.6,-5.3,30.08,WSW,247,0.0,0.0,7,0.00,,FEW060,1.49,VWS V14.01,2013-08-24 03:25:00,
2013-08-23 23:30:00,58.4,-8.6,30.08,WSW,247,0.0,0.0,6,0.00,,FEW060,1.49,VWS V14.01,2013-08-24 03:30:00,
2013-08-23 23:35:00,58.1,-8.8,30.08,WSW,247,0.0,1.0,6,0.00,,CLR,1.49,VWS V14.01,2013-08-24 03:35:00,
2013-08-23 23:40:00,57.9,-9.0,30.09,WSW,247,0.0,2.0,6,0.00,,CLR,1.49,VWS V14.01,2013-08-24 03:40:00,
2013-08-23 23:45:00,57.7,-9.1,30.09,WSW,247,2.0,3.0,6,0.00,,CLR,1.49,VWS V14.01,2013-08-24 03:45:00,
2013-08-23 23:50:00,57.7,-12.8,30.09,WSW,256,3.0,4.0,5,0.00,,CLR,1.49,VWS V14.01,2013-08-24 03:50:00,
2013-08-23 23:55:00,57.8,-12.7,30.09,West,276,1.0,4.0,5,0.00,,CLR,1.49,VWS V14.01,2013-08-24 03:55:00,